Date String (YYYY-MM-DD hh:mm:ss) UTC,Instrument flags,Ambient pressure (hPa),Sample flow (lpm),Bypass flow (lpm),Sample temperature (°C),Ambient temperature (°C),ASC tube jacket temperature (°C),LED temperature (°C),Box temperature (°C),Sample RH (%),Span deviation,Mass concentration (μg/m³),Mass concentration (μg/m³),Mass concentration (μg/m³)
DateTimeUTC,F1_M11,P_M11,Q1_M11,Q2_M11,T1_M11,T2_M11,T3_M11,T4_M11,T5_M11,U1_M11,ZSPAN_M11,X0_M11,X2_M11,X1_M11
2021-12-04 22:00:00,,0823.3,5.01,0.00,29.7,29.1,00.0,38.5,31.5,11.5,0001.2,0024.99,0006.89,0005.51
2021-12-04 22:01:00,,0823.4,5.00,0.00,29.7,29.1,00.0,38.5,31.5,11.5,0000.3,0025.77,0006.90,0005.49
2021-12-04 22:02:00,,0823.4,5.00,0.00,29.7,29.0,00.0,38.5,31.5,11.6,0000.4,0025.21,0006.95,0005.50
2021-12-04 22:03:00,,0823.4,5.00,0.00,29.7,29.0,00.0,38.6,31.5,11.7,-000.4,0024.48,0006.88,0005.51
2021-12-04 22:04:00,,0823.3,5.01,0.00,29.7,29.0,00.0,38.6,31.5,11.7,0000.2,0024.16,0006.88,0005.55
2021-12-04 22:05:00,,0823.2,4.99,0.00,29.7,29.0,00.0,38.6,31.4,11.7,0000.4,0025.06,0006.97,0005.59
2021-12-04 22:06:00,,0823.2,4.99,0.00,29.7,29.0,00.0,38.6,31.4,11.6,0000.5,0025.74,0006.99,0005.57
2021-12-04 22:07:00,,0823.2,5.01,0.00,29.7,28.9,00.0,38.6,31.4,11.7,0000.5,0026.33,0007.00,0005.58
2021-12-04 22:08:00,,0823.2,5.01,0.00,29.7,28.9,00.0,38.6,31.4,11.7,0000.2,0025.81,0007.05,0005.61
2021-12-04 22:09:00,,0823.3,4.99,0.00,29.6,28.9,00.0,38.6,31.3,11.7,-000.2,0025.23,0007.07,0005.64
2021-12-04 22:10:00,,0823.2,5.01,0.00,29.6,28.9,00.0,38.6,31.3,11.7,-000.9,0024.86,0007.14,0005.67
2021-12-04 22:11:00,,0823.2,4.99,0.00,29.6,28.8,00.0,38.6,31.3,11.7,-001.0,0024.91,0007.21,0005.71
2021-12-04 22:12:00,,0823.2,5.00,0.00,29.6,28.8,00.0,38.6,31.3,11.7,-000.5,0025.10,0007.26,0005.76
2021-12-04 22:13:00,,0823.1,5.00,0.00,29.6,28.8,00.0,38.6,31.3,11.7,-000.9,0026.65,0007.27,0005.79
2021-12-04 22:14:00,,0823.2,4.98,0.00,29.6,28.8,00.0,38.6,31.3,11.7,-000.1,0027.57,0007.34,0005.81
2021-12-04 22:15:00,,0823.3,5.02,0.00,29.6,28.8,00.0,38.6,31.4,11.6,-000.1,0025.56,0007.29,0005.81
2021-12-04 22:16:00,,0823.2,4.99,0.00,29.6,28.9,00.0,38.6,31.4,11.6,0000.7,0024.08,0007.23,0005.80
2021-12-04 22:17:00,,0823.3,4.99,0.00,29.7,28.9,00.0,38.6,31.4,11.6,0001.2,0023.47,0007.23,0005.83
2021-12-04 22:18:00,,0823.3,5.01,0.00,29.7,28.9,00.0,38.6,31.4,11.2,0001.1,0022.96,0007.18,0005.83
2021-12-04 22:19:00,,0823.3,5.00,0.00,29.7,29.0,00.0,38.6,31.4,11.5,0001.3,0022.57,0007.18,0005.85
2021-12-04 22:20:00,,0823.2,5.00,0.00,29.7,29.0,00.0,38.6,31.5,11.5,0001.8,0023.39,0007.22,0005.89
2021-12-04 22:21:00,,0823.3,5.00,0.00,29.7,29.0,00.0,38.6,31.5,11.3,0002.5,0023.52,0007.19,0005.90
2021-12-04 22:22:00,,0823.2,5.00,0.00,29.7,29.0,00.0,38.6,31.5,10.8,0002.4,0022.87,0007.10,0005.87
2021-12-04 22:23:00,,0823.3,5.01,0.00,29.7,29.0,00.0,38.6,31.5,10.1,0001.8,0022.31,0006.93,0005.76
2021-12-04 22:24:00,,0823.3,4.99,0.00,29.7,29.0,00.0,38.6,31.5,10.0,0001.7,0020.94,0006.72,0005.61
2021-12-04 22:25:00,,0823.2,5.01,0.00,29.8,29.1,00.0,38.7,31.5,09.7,0001.5,0020.42,0006.51,0005.46
2021-12-04 22:26:00,,0823.2,4.99,0.00,29.8,29.1,00.0,38.7,31.5,09.5,0001.6,0020.95,0006.29,0005.27
2021-12-04 22:27:00,,0823.1,5.00,0.00,29.8,29.1,00.0,38.7,31.5,08.0,0000.8,0020.25,0006.00,0005.00
2021-12-04 22:28:00,,0823.1,5.01,0.00,29.8,29.1,00.0,38.7,31.5,07.8,0000.2,0018.52,0005.57,0004.65
2021-12-04 22:29:00,,0823.1,4.99,0.00,29.8,29.1,00.0,38.7,31.5,07.9,0000.1,0016.87,0005.15,0004.34
2021-12-04 22:30:00,,0823.1,5.00,0.00,29.8,29.1,00.0,38.7,31.5,07.5,-000.1,0016.07,0004.71,0003.97
2021-12-04 22:31:00,,0823.1,5.00,0.00,29.8,29.1,00.0,38.7,31.5,07.4,-000.1,0014.74,0004.26,0003.59
2021-12-04 22:32:00,,0823.1,4.98,0.00,29.8,29.1,00.0,38.7,31.5,07.4,0000.0,0013.14,0003.81,0003.21
2021-12-04 22:33:00,,0823.1,5.00,0.00,29.8,29.1,00.0,38.7,31.5,07.4,0000.0,0012.29,0003.43,0002.68
2021-12-04 22:34:00,,0823.2,5.00,0.00,29.8,29.1,00.0,38.7,31.5,07.7,0000.0,0010.73,0003.04,0002.22
2021-12-04 22:35:00,,0823.2,5.00,0.00,29.8,29.0,00.0,38.7,31.5,08.5,0000.0,0009.49,0002.81,0001.98
2021-12-04 22:36:00,,0823.2,5.00,0.00,29.8,29.0,00.0,38.7,31.5,07.8,0000.0,0007.93,0002.41,0001.68
2021-12-04 22:37:00,,0823.1,4.99,0.00,29.8,29.0,00.0,38.7,31.4,07.4,0000.0,0006.38,0001.94,0001.35
2021-12-04 22:38:00,,0823.1,5.00,0.00,29.8,29.0,00.0,38.7,31.4,07.3,0000.0,0005.52,0001.66,0001.17
2021-12-04 22:39:00,,0823.1,5.00,0.00,29.8,29.0,00.0,38.7,31.5,07.3,0000.0,0005.34,0001.58,0001.13
2021-12-04 22:40:00,,0823.1,5.01,0.00,29.8,29.0,00.0,38.7,31.5,07.2,0000.0,0005.26,0001.54,0001.08
2021-12-04 22:41:00,,0823.1,4.98,0.00,29.8,29.0,00.0,38.7,31.5,07.2,0000.0,0006.57,0001.49,0001.06
2021-12-04 22:42:00,,0823.1,5.00,0.00,29.8,29.1,00.0,38.7,31.5,07.3,0000.0,0007.79,0001.47,0001.05
2021-12-04 22:43:00,,0823.1,5.00,0.00,29.8,29.1,00.0,38.7,31.5,07.2,0000.0,0007.77,0001.45,0001.05
2021-12-04 22:44:00,,0823.1,5.00,0.00,29.8,29.1,00.0,38.7,31.5,07.2,0000.0,0008.19,0001.46,0001.05
2021-12-04 22:45:00,,0823.1,5.01,0.00,29.8,29.1,00.0,38.7,31.5,07.2,0000.0,0008.25,0001.41,0001.02
2021-12-04 22:46:00,,0823.0,4.99,0.00,29.8,29.1,00.0,38.8,31.5,07.2,0000.0,0008.31,0001.22,0000.87
2021-12-04 22:47:00,,0823.0,5.01,0.00,29.8,29.1,00.0,38.8,31.6,07.0,0000.0,0007.97,0001.02,0000.74
2021-12-04 22:48:00,,0823.0,4.99,0.00,29.8,29.1,00.0,38.8,31.6,07.0,0000.0,0007.60,0000.99,0000.71
2021-12-04 22:49:00,,0823.0,5.01,0.00,29.8,29.1,00.0,38.8,31.5,06.9,0000.0,0007.13,0000.96,0000.69
2021-12-04 22:50:00,,0823.0,5.00,0.00,29.9,29.2,00.0,38.8,31.6,07.0,0000.0,0007.10,0000.94,0000.67
2021-12-04 22:51:00,,0823.0,5.00,0.00,29.9,29.2,00.0,38.8,31.6,07.0,0000.0,0006.75,0000.91,0000.65
2021-12-04 22:52:00,,0822.9,5.01,0.00,29.9,29.2,00.0,38.8,31.6,07.0,0000.0,0004.72,0000.88,0000.64
2021-12-04 22:53:00,,0822.9,5.00,0.00,29.9,29.2,00.0,38.8,31.6,07.0,0000.0,0003.05,0000.87,0000.64
2021-12-04 22:54:00,,0823.0,4.99,0.00,29.9,29.2,00.0,38.8,31.7,07.0,0000.0,0003.12,0000.87,0000.63
2021-12-04 22:55:00,,0823.0,5.01,0.00,29.9,29.2,00.0,38.8,31.7,07.0,0000.0,0002.26,0000.84,0000.62
2021-12-04 22:56:00,,0822.9,5.00,0.00,29.9,29.2,00.0,38.8,31.7,07.0,0000.0,0002.08,0000.84,0000.61
2021-12-04 22:57:00,,0822.9,5.00,0.00,29.9,29.2,00.0,38.9,31.6,06.9,0000.0,0001.58,0000.81,0000.61
2021-12-04 22:58:00,,0822.9,5.01,0.00,29.9,29.2,00.0,38.9,31.6,06.9,0000.0,0001.65,0000.82,0000.61
2021-12-04 22:59:00,,0823.0,5.01,0.00,29.9,29.3,00.0,38.9,31.6,06.9,0000.0,0001.73,0000.81,0000.60
